Home > Weather > Flint > Past weeks

Flag for USA Past Weather in Flint, Michigan, USA — Yesterday and Last 2 Weeks

Now
81 °F

Passing clouds.


Feels Like: 85 °F
Forecast: 70 / 83 °F
Wind: 9 mph from Southwest

Location: Bishop International Airport

Current Time: Aug 25, 2016 at 11:21:52 AM

Latest Report: Aug 25, 2016 at 10:53 AM


Visibility: 10 mi

Pressure: 29.95 "Hg

Humidity: 74%

Dew Point: 72 °F

Location of FlintLocation

Past Weather in Flint — Graph

°F

Flint Temperature Yesterday

Maximum temperature yesterday: 84 °F (at 3:53 PM)
Minimum temperature yesterday: 63 °F (at 6:53 AM)
Average temperature yesterday: 75 °F

High & Low Weather Summary for the Past Weeks

 TemperatureHumidityPressure
High95 °F (Aug 11, 2:53 PM)93% (Aug 15, 6:53 AM)30.25 "Hg (Aug 15, 6:53 AM)
Low55 °F (Aug 22, 6:53 AM)35% (Aug 10, 10:53 AM)29.57 "Hg (Aug 20, 7:53 PM)
Average77 °F70%29.97 "Hg
* Reported Aug 10 9:53 AM — Aug 25 9:53 AM, Flint, Weather by CustomWeather, © 2016

Note: Actual official high and low records may vary slightly from our data, if they occured in-between our weather recording intervals... More about our weather records

Advertising

Flint Weather History for the Previous 24 Hours

Scroll right to see more
 ConditionsComfort  
Time TempWeatherWind HumidityBarometerVisibility
9:53 AM
Thu, Aug 25
77 °FPartly sunny.5 mph85%29.95 "Hg9 mi
8:53 AM76 °FRain. Fog.6 mph88%29.97 "Hg3 mi
7:53 AM75 °FFog.7 mph88%29.96 "Hg5 mi
6:53 AM74 °FFog.5 mph88%29.96 "Hg6 mi
5:53 AM74 °FFog.3 mph88%29.96 "Hg6 mi
4:53 AM74 °FFog.3 mph88%29.95 "Hg6 mi
3:53 AM74 °FFog.6 mph88%29.94 "Hg6 mi
2:53 AM73 °FFog.5 mph90%29.93 "Hg6 mi
1:53 AM74 °FClear.5 mph91%29.92 "Hg8 mi
12:53 AM74 °FClear.5 mph88%29.92 "Hg8 mi
11:53 PM
Wed, Aug 24
75 °FPassing clouds.No wind88%29.92 "Hg10 mi
10:53 PM76 °FPassing clouds.3 mph85%29.93 "Hg10 mi
9:53 PM78 °FPassing clouds.6 mph79%29.94 "Hg10 mi
8:53 PM79 °FScattered clouds.8 mph77%29.94 "Hg10 mi
7:53 PM82 °FPartly sunny.10 mph65%29.93 "Hg10 mi
6:53 PM84 °FScattered clouds.8 mph63%29.93 "Hg10 mi
5:53 PM81 °FMore clouds than sun.7 mph77%29.94 "Hg10 mi
4:53 PM79 °FLight rain. Scattered clouds.7 mph74%29.96 "Hg6 mi
3:53 PM84 °FScattered clouds.10 mph65%29.96 "Hg10 mi
2:53 PM83 °FScattered clouds.14 mph68%29.98 "Hg10 mi
1:53 PM79 °FBroken clouds.9 mph77%30.01 "Hg10 mi
12:53 PM83 °FBroken clouds.14 mph61%30.02 "Hg10 mi
11:53 AM81 °FScattered clouds.15 mph58%30.04 "Hg10 mi
Weather by CustomWeather, © 2016

See weather overviewHow to use our weather pages